    Orbital elements:
    2020 GA2                                            PHA, Earth MOID = 0.0189 AU
    Epoch 2020 May 31.0 TT = JDT 2459000.5                  Bell
    M  74.02963              (2000.0)            P               Q
    n   0.68285322     Peri.   92.80009     -0.33009974     -0.90601195
    a   1.2771772      Node    22.91904     +0.33095202     -0.37390898
    e   0.4252998      Incl.   42.86291     +0.88402767     -0.19832906
    P   1.44           H   21.4           G   0.15           U   5
    Residuals in seconds of arc
    200409 T08  0.0   0.5-    200409 B49  0.2+  0.2-    200410 K38  0.0   0.0
    200409 T08  0.1-  0.4-    200409 Z80  0.1+  0.2-    200410 K38  0.3+  0.1+
    200409 T08  0.1-  0.7-    200409 B49  0.3+  0.0     200410 B37  0.1+  0.2+
    200409 L01  0.3-  0.1+    200409 I93  0.0   0.3+    200410 L04  0.1-  0.2-
    200409 L01  0.1+  0.3-    200409 B49  0.4-  0.5+    200410 L04  0.1-  0.2-
    200409 L01  0.2+  0.0     200409 Z80  0.5+  0.3+    200410 L04  0.1-  0.3-
    200409 L01  0.0   0.0     200409 I93  0.2-  0.0     200410 204  0.2-  0.1-
    200409 L01  0.0   0.4+    200409 Z80  0.1-  0.2+    200410 L04  0.0   0.2-
    200409 L01  0.3-  0.3+    200409 I93  0.2-  0.1+    200410 204  0.2-  0.2-
    200409 L01  0.1+  0.0     200409 K80  0.2+  0.1+    200410 204  0.1-  0.1-
    200409 L01  0.1+  0.1+    200409 B37  0.2+  0.4+    200410 204  0.1-  0.2-
    200409 J95  0.2-  0.4+    200410 B37  0.3+  0.3+    200410 L04  0.1-  0.2-
    200409 J95  0.1+  0.3+    200410 K80  0.1+  0.3+    200410 204  0.1-  0.2-
    200409 J95  0.1+  0.3+    200410 033  0.1-  0.1-    200410 L04  0.0   0.3-
    200409 J95  0.2-  0.3+    200410 B37  0.4+  0.3+    200410 L04  0.0   0.5-
    200409 J95  0.2-  0.5+    200410 033  0.4-  0.3-    200410 L04  0.1-  0.3-
    200409 108  0.2-  0.5-    200410 033  0.0   0.1-    200410 L04  0.1-  0.2-
    200409 108  0.6-  0.6-    200410 B37  0.2+  0.4+    200410 H36  0.9-  0.4-
    200409 108  0.7-  0.9-    200410 B37  0.1+  0.4+    200410 H36  1.2-  0.7-
    200409 108  0.5-  0.7-    200410 B37  0.3+  0.3+    200410 H36  1.1-  0.6-
    200409 Z80  0.6+  0.5+    200410 B37  0.6+  0.4+    200410 H36  1.2-  0.7-
    200409 Z80  0.2+  0.1+    200410 K38  0.2-  0.0     200410 H21  0.6+  0.4+
    200409 Z80  0.6+  0.1-    200410 K38  0.0   0.0     200410 H21  0.5+  0.4+
    200409 B49  0.8+  0.1-    200410 K38  0.2-  0.1-    200410 H21  0.5+  0.3+
    200409 B49  0.8+  0.2-    200410 B37  0.4+  0.3+    200410 H21  0.7+  0.4+
    200409 B49  0.2-  0.9-    200410 K38  0.3+  0.1+    200410 H21  0.9+  0.9+
    
    Ephemeris:
    2020 GA2                 a,e,i = 1.28, 0.43, 43                  q = 0.7340
    Date    TT    R. A. (2000) Decl.     Delta      r    Elong.  Phase     V
    2020 03 11    21 30 58.4 +43 11 27   0.4373  0.8135    53.5   100.8    22.8
    ...
    2020 03 26    21 04 43.8 +44 37 28   0.2358  0.9045    60.4   106.5    22.0
    ...
    2020 04 03    20 34 46.4 +44 12 06   0.1248  0.9592    67.6   105.5    20.7
    ...
    2020 04 09    18 53 34.1 +37 43 45   0.04377 1.0016    88.9    88.6    17.7
    2020 04 10    18 00 25.8 +31 11 22   0.03226 1.0088   101.5    76.7    16.6
    2020 04 11    16 39 08.1 +16 06 51   0.02385 1.0159   124.7    54.2    15.3
    ...
    2020 04 17    11 00 02.5 -42 53 53   0.07915 1.0588   132.4    44.5    17.7
    ...
    2020 04 25    10 11 27.8 -44 28 46   0.1915  1.1158   120.6    50.9    19.9
    ...
    2020 05 10    10 03 30.7 -44 31 58   0.4036  1.2196   112.0    50.2    21.7
    
    A. U. Tomatic                (C) Copyright 2020 MPC           M.P.E.C. 2020-G79
    


    Read MPEC 2020-G78 Read MPEC 2020-G80


    MPEC number:

    Enter an MPEC number in one of the following forms:

    • 1997-B01 (the full form)
    • J97B01 (the packed version of the full form)
    • B01 (the abbreviated form)